User: anonymous
Location: Unspecified
(0.0000°N, 0.0000°E)
Time: 08:17:37
(UTC+00:00)
Language:

LANDSAT 8 - Orbit

View from above orbital plane
View from above orbital plane
View from above satellite
View from above satellite

Ground track
Ground track

The orbit data is extracted from the following two-line orbital elements,

1 39084U 13008A   14208.29561415 -.00002980  00000-0 -65200-3 0  5470
2 39084 098.2202 277.9599 0001028 067.6518 292.4769 14.57091263 77293
Epoch (UTC): 27 July 2014 07:05:41
Eccentricity: 0.0001028
inclination: 98.2202°
perigee height: 702 km
apogee height: 703 km
right ascension of ascending node: 277.9599°
argument of perigee: 67.6518°
revolutions per day: 14.57091263
mean anomaly at epoch: 292.4769°
orbit number at epoch: 7729

The dashed part of the orbit path shows where the satellite is in the earth's shadow,  

DLR